Regional Weather Roundup
Issued by NWS Jackson, KY

Home | Current Version | Previous Version | Graphics & Text | Print | Product List | Glossary On
Versions: 1 2 3 4 5 6 7 8 9 10 11 12 13 14 15 16 17 18 19 20 21 22 23 24 25 26 27 28 29 30 31 32 33 34 35 36 37 38 39 40 41 42 43 44 45 46 47 48 49 50
000
ASUS43 KJKL 291710
RWRJKL

EAST KENTUCKY HOURLY WEATHER ROUNDUP
NATIONAL WEATHER SERVICE JACKSON KY
1200 PM EST THU JAN 29 2015

NOTE: "FAIR" INDICATES FEW OR NO CLOUDS BELOW 12,000 FEET WITH
NO SIGNIFICANT WEATHER AND/OR OBSTRUCTIONS TO VISIBILITY.

* THESE REPORTS ARE NOT UNDER NWS QUALITY CONTROL AND MAY NOT
  REPORT WEATHER SUCH AS PRECIPITATION AND FOG.

KYZ079-080-083-085-087-088-110-112-115-119-120-291800
...EASTERN KENTUCKY...

CITY           SKY/WX    TMP DP  RH WIND       PRES   REMARKS
JACKSON        CLOUDY    47  36  65 S12G20    29.96F
LONDON         SUNNY     52  35  52 SW16G25   30.00F
SOMERSET*      MOSUNNY   52  34  50 S10G17    30.01F
MONTICELLO*    SUNNY     57  37  47 SW18G33   30.03F
MIDDLESBORO*   MOSUNNY   45  32  60 S22G31    30.08F
HARLAN APT*    CLOUDY    43  32  65 S8        30.06F
HAZARD APT*    SUNNY     48  36  61 SW17      29.99F
BLACK MTN*       N/A     28  27  93 SW17        N/A  WCI  16
PIKEVILLE APT* CLOUDY    43  34  70 S9G17     29.98F
BIG SANDY*     CLOUDY    44  35  69 SW10G22   29.97F
MOREHEAD APT*  PTSUNNY   50  36  57 SW18G26   29.93F
$$

KYZ035-036-041-042-044-050-067-078-099-291800
...CENTRAL KENTUCKY...

CITY           SKY/WX    TMP DP  RH WIND       PRES   REMARKS
MT STERLING*   PTSUNNY   50  36  57 SW21G33   29.92F
FLEMING/MASON* CLOUDY    48  37  64 SW20G28   29.89F
DANVILLE*      PTSUNNY   52  37  58 SW20G28   29.95F
RICHMOND*      SUNNY     50  34  53 SW18G30   29.95F
LEXINGTON      CLOUDY    51  37  58 SW24G36   29.90F
FRANKFORT      CLOUDY    52  37  56 SW22G32   29.89F
$$

KYZ091>093-OHZ055-061-077-WVZ005-015-034-035-042-291800
...SOUTHERN OHIO/WEST VIRGINIA...

CITY           SKY/WX    TMP DP  RH WIND       PRES   REMARKS
COVINGTON      CLOUDY    49  36  61 SW14G23   29.84S
COLUMBUS       CLOUDY    37  30  75 S12       29.83F WCI  29
DAYTON         CLOUDY    43  35  73 SW14      29.80S
WILMINGTON     PTSUNNY   44  34  67 SW22G28   29.80F
HUNTINGTON     CLOUDY    41  33  73 S14G23    29.92F
CHARLESTON     LGT RAIN  40  34  79 S5        29.95F
PINEVILLE*     LGT SNOW  36  36  99 MISG      30.08F
BECKLEY        RAIN      36  21  54 S8        30.04R WCI  30
BLUEFIELD      LGT RAIN  44  19  36 S10G17    30.04F
$$

VAZ002-007-008-TNZ017-027-036-066-071-291800
...SOUTHWEST VIRGINIA/EAST TENNESSEE...

CITY           SKY/WX    TMP DP  RH WIND       PRES   REMARKS
WISE*          CLOUDY    37  32  81 SW13G20   30.04F WCI  29
JONESVILLE*    LGT RAIN  32  32 100 CALM      30.15F
ABINGDON*      CLOUDY    40  23  49 CALM      30.12R
BRISTOL        LGT RAIN  35  27  72 CALM      30.15S
KNOXVILLE      CLOUDY    36  30  79 SE3       30.12F
OAK RIDGE      CLOUDY    43  33  68 W7        30.15F
CROSSVILLE     MOSUNNY   46  32  58 S13G25    30.09F
NASHVILLE      MOSUNNY   59  36  42 SW16G26   30.04F
$$

...KEY TO REMARKS...
VSB - VISIBILITY IN MILES
WCI - WIND CHILL INDEX
HX  - HEAT INDEX

$$



USA.gov is the U.S. government's official web portal to all federal, state and local government web resources and services.